User: anonymous   Login
Location: Olmeneta
(45.2333°N, 10.0167°E)
Time: 16:45:39
(UTC+00:00)
Language:

Cosmos 1707 Rocket - Orbit

View from above orbital plane
View from above orbital plane
View from above satellite
View from above satellite

Ground track
Ground track

The orbit data is extracted from the following two-line orbital elements,

1 16327U 85113B   21127.77535956  .00000069  00000-0  54466-5 0  9992
2 16327  82.5369 204.2251 0018574 347.9416 151.5004 14.83505485891332
Epoch (UTC): 07 May 2021 18:36:31
Eccentricity: 0.0018574
inclination: 82.5369°
perigee height: 605 km
apogee height: 631 km
right ascension of ascending node: 204.2251°
argument of perigee: 347.9416°
revolutions per day: 14.83505485
mean anomaly at epoch: 151.5004°
orbit number at epoch: 89133

The dashed part of the orbit path shows where the satellite is in the earth's shadow,  

DLR